Terug naar catalogus

STARLINK-33790

ActiefCommunicatieVLEO
NORAD 64029·PAYLOAD·🇺🇸 United States

Gelanceerd May 16, 2025 vanaf Vandenberg Space Force Base

Loading…

Volgende Passages (komende 24 uur)

TLE

VersSource: CelesTrak SupGP

Epoch: Sep 14, 2026, 22:40 UTC

1 64029C 25102H   26257.94493056 -.00026065  00000+0 -90713-3 0  2573
2 64029  70.0011 355.5109 0003617 268.0935 137.2082 15.29575819    16

Volg STARLINK-33790 in realtime met AllMySat

Download on the App Store